CPA512 VHHH-RJFF

Flight info

Callsign CPA512
Flight time 2h 34m
Altitude 39000
Route DALOL V631 ENVAR M750 MOMPA Y25 ISKUP
Aircraft A359/H-SDE2E3GHIJ3J4J5LM1ORWXY/LB1D1

Departure

Time 2026-04-30 11:07
Airport Hong Kong International Airport (VHHH)

Arrival

Time 2026-04-30 13:41
Airport Fukuoka Airport (RJFF)
Time Latitude Longitude Altitude Speed Heading
2026-04-30 10:35 22.31690 113.93304 40 ft 0 kts 72°
2026-04-30 10:51 22.31686 113.93292 40 ft 2 kts 72°
2026-04-30 10:51 22.31682 113.93277 40 ft 2 kts 72°
2026-04-30 10:51 22.31677 113.93261 40 ft 2 kts 72°
2026-04-30 10:51 22.31672 113.93246 40 ft 2 kts 70°
2026-04-30 10:52 22.31666 113.93231 40 ft 2 kts 64°
2026-04-30 10:52 22.31659 113.93217 40 ft 2 kts 59°
2026-04-30 10:52 22.31651 113.93203 40 ft 2 kts 54°
2026-04-30 10:52 22.31642 113.93190 40 ft 2 kts 50°
2026-04-30 10:53 22.31632 113.93178 40 ft 2 kts 45°
2026-04-30 10:53 22.31621 113.93166 40 ft 2 kts 40°
2026-04-30 10:53 22.31610 113.93156 40 ft 2 kts 50°
2026-04-30 10:53 22.31601 113.93143 40 ft 2 kts 63°
2026-04-30 10:54 22.31596 113.93128 40 ft 2 kts 72°
2026-04-30 10:54 22.31591 113.93113 40 ft 1 kts 71°
2026-04-30 10:54 22.31590 113.93111 40 ft 0 kts 71°
2026-04-30 10:56 22.31592 113.93117 40 ft 3 kts 70°
2026-04-30 10:56 22.31608 113.93157 40 ft 5 kts 57°
2026-04-30 10:56 22.31635 113.93178 40 ft 8 kts 29°
2026-04-30 10:56 22.31718 113.93175 40 ft 15 kts 340°
2026-04-30 10:57 22.31837 113.93130 40 ft 15 kts 339°
2026-04-30 10:57 22.31870 113.93076 40 ft 6 kts 261°
2026-04-30 10:57 22.31853 113.93012 40 ft 11 kts 251°
2026-04-30 10:57 22.31821 113.92918 40 ft 15 kts 251°
2026-04-30 10:58 22.31781 113.92791 40 ft 18 kts 250°
2026-04-30 10:58 22.31736 113.92653 40 ft 19 kts 251°
2026-04-30 10:58 22.31689 113.92508 40 ft 21 kts 251°
2026-04-30 10:58 22.31640 113.92354 40 ft 22 kts 251°
2026-04-30 10:59 22.31588 113.92194 40 ft 23 kts 251°
2026-04-30 10:59 22.31544 113.92076 40 ft 7 kts 223°
2026-04-30 10:59 22.31478 113.92076 40 ft 13 kts 167°
2026-04-30 10:59 22.31388 113.92109 40 ft 16 kts 161°
2026-04-30 11:00 22.31255 113.92158 40 ft 23 kts 161°
2026-04-30 11:00 22.31081 113.92223 40 ft 27 kts 161°
2026-04-30 11:00 22.30898 113.92291 40 ft 28 kts 161°
2026-04-30 11:00 22.30743 113.92344 40 ft 13 kts 177°
2026-04-30 11:01 22.30720 113.92331 40 ft 1 kts 245°
2026-04-30 11:01 22.30712 113.92310 40 ft 4 kts 248°
2026-04-30 11:01 22.30696 113.92265 40 ft 8 kts 250°
2026-04-30 11:01 22.30673 113.92196 40 ft 11 kts 251°
2026-04-30 11:02 22.30643 113.92100 40 ft 15 kts 251°
2026-04-30 11:02 22.30603 113.91974 40 ft 19 kts 251°
2026-04-30 11:02 22.30553 113.91821 40 ft 23 kts 251°
2026-04-30 11:02 22.30496 113.91644 40 ft 25 kts 251°
2026-04-30 11:03 22.30437 113.91460 40 ft 26 kts 251°
2026-04-30 11:03 22.30376 113.91271 40 ft 27 kts 251°
2026-04-30 11:03 22.30313 113.91075 40 ft 28 kts 250°
2026-04-30 11:04 22.30191 113.90698 40 ft 27 kts 251°
2026-04-30 11:04 22.30128 113.90503 40 ft 27 kts 251°
2026-04-30 11:04 22.30068 113.90318 40 ft 25 kts 251°
2026-04-30 11:04 22.30009 113.90134 40 ft 26 kts 251°
2026-04-30 11:05 22.29948 113.89944 40 ft 27 kts 251°
2026-04-30 11:05 22.29885 113.89755 40 ft 12 kts 241°
2026-04-30 11:05 22.29822 113.89734 40 ft 9 kts 163°
2026-04-30 11:05 22.29759 113.89758 40 ft 10 kts 160°
2026-04-30 11:06 22.29687 113.89787 40 ft 9 kts 151°
2026-04-30 11:06 22.29646 113.89852 40 ft 12 kts 99°
2026-04-30 11:06 22.29661 113.89930 40 ft 9 kts 72°
2026-04-30 11:06 22.29719 113.90111 40 ft 56 kts 70°
2026-04-30 11:07 22.29928 113.90757 41 ft 123 kts 71°
2026-04-30 11:07 22.30268 113.91814 97 ft 170 kts 68°
2026-04-30 11:07 22.30675 113.93061 637 ft 178 kts 69°
2026-04-30 11:07 22.31075 113.94270 1365 ft 171 kts 69°
2026-04-30 11:08 22.31468 113.95465 1924 ft 170 kts 70°
2026-04-30 11:08 22.31859 113.96673 2445 ft 171 kts 69°
2026-04-30 11:08 22.32251 113.97887 2957 ft 172 kts 69°
2026-04-30 11:08 22.32648 113.99120 3397 ft 179 kts 69°
2026-04-30 11:09 22.33075 114.00438 3723 ft 194 kts 69°
2026-04-30 11:09 22.33541 114.01880 4042 ft 212 kts 69°
2026-04-30 11:09 22.33885 114.03484 4477 ft 226 kts 88°
2026-04-30 11:09 22.33672 114.05176 5163 ft 231 kts 108°
2026-04-30 11:10 22.32922 114.06695 5828 ft 235 kts 130°
2026-04-30 11:10 22.31693 114.07879 6492 ft 239 kts 150°
2026-04-30 11:10 22.30148 114.08617 6964 ft 251 kts 168°
2026-04-30 11:10 22.28384 114.08818 7488 ft 260 kts 182°
2026-04-30 11:11 22.26522 114.08785 7934 ft 275 kts 184°
2026-04-30 11:11 22.24572 114.08727 8411 ft 288 kts 184°
2026-04-30 11:11 22.22534 114.08686 9094 ft 292 kts 184°
2026-04-30 11:11 22.20488 114.08658 9791 ft 295 kts 184°
2026-04-30 11:12 22.18412 114.08682 10416 ft 302 kts 176°
2026-04-30 11:12 22.16343 114.09462 10761 ft 325 kts 149°
2026-04-30 11:12 22.14726 114.11224 11110 ft 345 kts 123°
2026-04-30 11:12 22.13605 114.13574 11484 ft 359 kts 117°
2026-04-30 11:13 22.12498 114.16052 11774 ft 374 kts 117°
2026-04-30 11:13 22.11324 114.18619 12051 ft 389 kts 118°
2026-04-30 11:13 22.10088 114.21259 12310 ft 403 kts 118°
2026-04-30 11:13 22.08740 114.23964 12551 ft 416 kts 124°
2026-04-30 11:14 22.06962 114.26477 12907 ft 423 kts 135°
2026-04-30 11:14 22.04784 114.28609 13425 ft 424 kts 144°
2026-04-30 11:14 22.02413 114.30496 13966 ft 426 kts 147°
2026-04-30 11:14 21.99986 114.32358 14485 ft 430 kts 147°
2026-04-30 11:15 21.97557 114.34233 14998 ft 433 kts 147°
2026-04-30 11:15 21.95101 114.36150 15508 ft 436 kts 147°
2026-04-30 11:15 21.92645 114.38080 16006 ft 439 kts 146°
2026-04-30 11:15 21.90166 114.40031 16497 ft 442 kts 146°
2026-04-30 11:16 21.87707 114.41990 16967 ft 445 kts 143°
2026-04-30 11:16 21.85524 114.44424 17414 ft 453 kts 128°
2026-04-30 11:16 21.83967 114.47383 17926 ft 458 kts 113°
2026-04-30 11:16 21.83004 114.50633 18401 ft 461 kts 106°
2026-04-30 11:17 21.82169 114.53983 18786 ft 465 kts 105°
2026-04-30 11:17 21.81342 114.57379 19178 ft 469 kts 105°
2026-04-30 11:17 21.80502 114.60772 19571 ft 473 kts 106°
2026-04-30 11:17 21.79639 114.64185 19974 ft 476 kts 106°
2026-04-30 11:18 21.78758 114.67626 20376 ft 479 kts 107°
2026-04-30 11:18 21.76979 114.74521 21145 ft 484 kts 107°
2026-04-30 11:18 21.76070 114.78023 21530 ft 486 kts 107°
2026-04-30 11:19 21.75212 114.81558 21890 ft 490 kts 103°
2026-04-30 11:19 21.74622 114.85169 22217 ft 494 kts 98°
2026-04-30 11:19 21.74341 114.88847 22566 ft 497 kts 92°
2026-04-30 11:19 21.74296 114.92533 22916 ft 499 kts 90°
2026-04-30 11:20 21.74312 114.96284 23259 ft 502 kts 90°
2026-04-30 11:20 21.74338 115.00020 23623 ft 504 kts 90°
2026-04-30 11:20 21.74357 115.03791 23995 ft 506 kts 90°
2026-04-30 11:20 21.74365 115.07561 24344 ft 508 kts 90°
2026-04-30 11:21 21.74366 115.11380 24685 ft 510 kts 90°
2026-04-30 11:21 21.74362 115.15208 25008 ft 513 kts 90°
2026-04-30 11:21 21.74356 115.19017 25343 ft 515 kts 90°
2026-04-30 11:21 21.74349 115.22877 25659 ft 517 kts 90°
2026-04-30 11:22 21.74342 115.26711 25958 ft 519 kts 90°
2026-04-30 11:22 21.74335 115.30589 26251 ft 521 kts 90°
2026-04-30 11:22 21.74326 115.34495 26541 ft 523 kts 90°
2026-04-30 11:22 21.74317 115.38403 26841 ft 525 kts 90°
2026-04-30 11:23 21.74306 115.42310 27103 ft 527 kts 90°
2026-04-30 11:23 21.74294 115.46292 27353 ft 530 kts 90°
2026-04-30 11:23 21.74267 115.54199 27880 ft 533 kts 90°
2026-04-30 11:24 21.74253 115.58215 28261 ft 533 kts 90°
2026-04-30 11:24 21.74238 115.62155 28673 ft 531 kts 90°
2026-04-30 11:24 21.74224 115.66122 29082 ft 530 kts 90°
2026-04-30 11:25 21.74193 115.73987 29816 ft 528 kts 90°
2026-04-30 11:25 21.74176 115.77940 30185 ft 528 kts 91°
2026-04-30 11:25 21.74139 115.85794 30921 ft 526 kts 91°
2026-04-30 11:26 21.74098 115.93644 31566 ft 526 kts 91°
2026-04-30 11:26 21.74076 115.97533 31888 ft 525 kts 91°
2026-04-30 11:26 21.74052 116.01469 32224 ft 524 kts 91°
2026-04-30 11:27 21.74029 116.05381 32540 ft 524 kts 91°
2026-04-30 11:27 21.74005 116.09296 32852 ft 524 kts 91°
2026-04-30 11:27 21.73980 116.13178 33178 ft 523 kts 91°
2026-04-30 11:27 21.73953 116.17079 33533 ft 522 kts 91°
2026-04-30 11:28 21.73896 116.24876 34226 ft 521 kts 91°
2026-04-30 11:28 21.73868 116.28728 34544 ft 520 kts 91°
2026-04-30 11:28 21.73838 116.32604 34880 ft 519 kts 91°
2026-04-30 11:29 21.73806 116.36472 35182 ft 518 kts 91°
2026-04-30 11:29 21.73775 116.40334 35455 ft 518 kts 91°
2026-04-30 11:29 21.73710 116.48063 36035 ft 516 kts 91°
2026-04-30 11:30 21.73640 116.55723 36537 ft 515 kts 91°
2026-04-30 11:30 21.73604 116.59560 36747 ft 515 kts 91°
2026-04-30 11:30 21.73565 116.63429 36973 ft 515 kts 91°
2026-04-30 11:31 21.73530 116.67279 37198 ft 515 kts 90°
2026-04-30 11:31 21.73623 116.71107 37358 ft 515 kts 87°
2026-04-30 11:31 21.73933 116.74923 37494 ft 516 kts 83°
2026-04-30 11:31 21.74475 116.78735 37611 ft 517 kts 79°
2026-04-30 11:32 21.75245 116.82497 37725 ft 517 kts 75°
2026-04-30 11:32 21.76240 116.86201 37846 ft 517 kts 71°
2026-04-30 11:32 21.77454 116.89844 37977 ft 517 kts 68°
2026-04-30 11:33 21.80092 116.97054 38180 ft 519 kts 67°
2026-04-30 11:33 21.81408 117.00633 38275 ft 520 kts 67°
2026-04-30 11:33 21.82738 117.04275 38388 ft 520 kts 67°
2026-04-30 11:33 21.84045 117.07873 38491 ft 520 kts 67°
2026-04-30 11:34 21.86659 117.15102 38675 ft 522 kts 68°
2026-04-30 11:34 21.89281 117.22387 38879 ft 522 kts 68°
2026-04-30 11:35 21.91909 117.29699 38985 ft 524 kts 68°
2026-04-30 11:35 21.94525 117.36989 38987 ft 524 kts 68°
2026-04-30 11:36 21.97153 117.44320 38982 ft 524 kts 66°
2026-04-30 11:36 22.00137 117.51420 38989 ft 523 kts 60°
2026-04-30 11:37 22.03793 117.58177 38988 ft 523 kts 56°
2026-04-30 11:37 22.07605 117.64834 38983 ft 523 kts 56°
2026-04-30 11:38 22.11420 117.71539 38985 ft 522 kts 57°
2026-04-30 11:38 22.15226 117.78221 38989 ft 522 kts 57°
2026-04-30 11:39 22.19003 117.84888 38982 ft 522 kts 57°
2026-04-30 11:39 22.22782 117.91582 38985 ft 523 kts 57°
2026-04-30 11:40 22.26533 117.98241 38986 ft 522 kts 57°
2026-04-30 11:40 22.30360 118.04911 38982 ft 523 kts 56°
2026-04-30 11:41 22.34255 118.11544 38974 ft 524 kts 56°
2026-04-30 11:41 22.38123 118.18176 38985 ft 524 kts 56°
2026-04-30 11:42 22.41993 118.24869 38982 ft 524 kts 57°
2026-04-30 11:42 22.45770 118.31538 38986 ft 524 kts 57°
2026-04-30 11:43 22.49557 118.38247 38983 ft 524 kts 57°
2026-04-30 11:43 22.53350 118.44974 38984 ft 525 kts 57°
2026-04-30 11:44 22.57167 118.51738 38987 ft 524 kts 57°
2026-04-30 11:44 22.60989 118.58432 38983 ft 524 kts 56°
2026-04-30 11:45 22.64806 118.65111 38989 ft 525 kts 57°
2026-04-30 11:45 22.68632 118.71858 38987 ft 525 kts 57°
2026-04-30 11:46 22.72427 118.78565 38989 ft 526 kts 57°
2026-04-30 11:46 22.76260 118.85331 38994 ft 526 kts 57°
2026-04-30 11:47 22.80068 118.92055 38995 ft 527 kts 57°
2026-04-30 11:47 22.83897 118.98824 38993 ft 528 kts 57°
2026-04-30 11:48 22.87714 119.05584 38995 ft 528 kts 57°
2026-04-30 11:48 22.91543 119.12370 38995 ft 528 kts 57°
2026-04-30 11:49 22.95365 119.19152 38994 ft 527 kts 57°
2026-04-30 11:49 22.99178 119.25925 38997 ft 527 kts 57°
2026-04-30 11:50 23.02988 119.32707 38989 ft 528 kts 57°
2026-04-30 11:50 23.06795 119.39494 38992 ft 528 kts 57°
2026-04-30 11:51 23.10623 119.46325 38991 ft 528 kts 57°
2026-04-30 11:51 23.14454 119.53123 38994 ft 528 kts 57°
2026-04-30 11:52 23.18275 119.59947 38991 ft 528 kts 57°
2026-04-30 11:52 23.22090 119.66759 38988 ft 528 kts 57°
2026-04-30 11:53 23.25884 119.73590 38996 ft 528 kts 57°
2026-04-30 11:53 23.29667 119.80399 38998 ft 528 kts 58°
2026-04-30 11:54 23.33523 119.87191 38996 ft 527 kts 54°
2026-04-30 11:54 23.37940 119.93572 38991 ft 525 kts 47°
2026-04-30 11:55 23.42937 119.99289 39002 ft 522 kts 41°
2026-04-30 11:55 23.48251 120.04736 39005 ft 522 kts 40°
2026-04-30 11:56 23.53574 120.10178 39014 ft 523 kts 40°
2026-04-30 11:56 23.58831 120.15589 39019 ft 523 kts 41°
2026-04-30 11:57 23.64119 120.21051 39016 ft 523 kts 40°
2026-04-30 11:57 23.69421 120.26536 39018 ft 524 kts 40°
2026-04-30 11:58 23.74674 120.31976 39026 ft 523 kts 41°
2026-04-30 11:58 23.79958 120.37457 39026 ft 524 kts 41°
2026-04-30 11:59 23.85255 120.42960 39027 ft 524 kts 41°
2026-04-30 11:59 23.90532 120.48447 39025 ft 524 kts 41°
2026-04-30 12:00 23.95769 120.53937 39036 ft 524 kts 41°
2026-04-30 12:00 24.01030 120.59487 39040 ft 524 kts 41°
2026-04-30 12:01 24.06292 120.65048 39048 ft 525 kts 42°
2026-04-30 12:01 24.11546 120.70631 39050 ft 527 kts 42°
2026-04-30 12:02 24.16814 120.76197 39062 ft 527 kts 42°
2026-04-30 12:02 24.22080 120.81771 39076 ft 527 kts 42°
2026-04-30 12:03 24.29998 120.90177 39109 ft 528 kts 42°
2026-04-30 12:04 24.35291 120.95812 39151 ft 528 kts 42°
2026-04-30 12:04 24.40543 121.01487 39189 ft 528 kts 44°
2026-04-30 12:05 24.45328 121.07591 39222 ft 530 kts 50°
2026-04-30 12:05 24.49915 121.13933 39246 ft 530 kts 50°
2026-04-30 12:06 24.54497 121.20290 39251 ft 531 kts 50°
2026-04-30 12:06 24.59079 121.26633 39240 ft 531 kts 49°
2026-04-30 12:07 24.63663 121.32978 39182 ft 531 kts 49°
2026-04-30 12:07 24.68251 121.39331 39128 ft 531 kts 50°
2026-04-30 12:08 24.72818 121.45669 39102 ft 531 kts 50°
2026-04-30 12:08 24.77412 121.52050 39083 ft 532 kts 50°
2026-04-30 12:09 24.81991 121.58425 39080 ft 532 kts 49°
2026-04-30 12:09 24.86575 121.64812 39078 ft 533 kts 50°
2026-04-30 12:10 24.91224 121.71161 39072 ft 533 kts 47°
2026-04-30 12:10 24.96070 121.77346 39076 ft 532 kts 46°
2026-04-30 12:11 25.00896 121.83468 39075 ft 532 kts 46°
2026-04-30 12:11 25.05740 121.89635 39066 ft 533 kts 47°
2026-04-30 12:12 25.10589 121.95828 39063 ft 535 kts 47°
2026-04-30 12:12 25.15451 122.02029 39059 ft 536 kts 47°
2026-04-30 12:13 25.20317 122.08313 39054 ft 537 kts 47°
2026-04-30 12:13 25.25165 122.14610 39056 ft 539 kts 47°
2026-04-30 12:14 25.30015 122.20919 39053 ft 540 kts 47°
2026-04-30 12:14 25.34842 122.27206 39054 ft 540 kts 47°
2026-04-30 12:15 25.39701 122.33543 39056 ft 540 kts 47°
2026-04-30 12:15 25.44517 122.39836 39057 ft 540 kts 47°
2026-04-30 12:16 25.49374 122.46192 39055 ft 539 kts 47°
2026-04-30 12:16 25.54258 122.52551 39053 ft 540 kts 47°
2026-04-30 12:17 25.61563 122.62017 39058 ft 542 kts 47°
2026-04-30 12:17 25.66487 122.68437 39052 ft 543 kts 48°
2026-04-30 12:18 25.71335 122.74794 39055 ft 543 kts 47°
2026-04-30 12:18 25.76208 122.81172 39054 ft 544 kts 47°
2026-04-30 12:19 25.81100 122.87577 39056 ft 544 kts 47°
2026-04-30 12:19 25.86002 122.93999 39064 ft 544 kts 47°
2026-04-30 12:20 25.90859 123.00367 39053 ft 544 kts 47°
2026-04-30 12:20 25.95746 123.06784 39054 ft 545 kts 47°
2026-04-30 12:21 26.00633 123.13213 39056 ft 546 kts 47°
2026-04-30 12:21 26.05523 123.19659 39053 ft 547 kts 47°
2026-04-30 12:22 26.10417 123.26118 39055 ft 547 kts 47°
2026-04-30 12:22 26.15348 123.32597 39060 ft 548 kts 47°
2026-04-30 12:23 26.20236 123.39038 39055 ft 549 kts 47°
2026-04-30 12:23 26.25160 123.45562 39063 ft 549 kts 47°
2026-04-30 12:24 26.30070 123.52080 39060 ft 549 kts 47°
2026-04-30 12:24 26.34964 123.58593 39056 ft 549 kts 47°
2026-04-30 12:25 26.39873 123.65127 39062 ft 550 kts 47°
2026-04-30 12:25 26.44733 123.71640 39059 ft 550 kts 48°
2026-04-30 12:26 26.49657 123.78239 39059 ft 551 kts 48°
2026-04-30 12:26 26.54546 123.84783 39061 ft 551 kts 48°
2026-04-30 12:27 26.59442 123.91343 39062 ft 552 kts 48°
2026-04-30 12:27 26.64352 123.97933 39058 ft 553 kts 48°
2026-04-30 12:28 26.69296 124.04560 39059 ft 553 kts 47°
2026-04-30 12:28 26.74208 124.11118 39057 ft 555 kts 48°
2026-04-30 12:29 26.79167 124.17763 39059 ft 555 kts 48°
2026-04-30 12:29 26.84110 124.24400 39060 ft 555 kts 47°
2026-04-30 12:30 26.89040 124.31030 39059 ft 556 kts 48°
2026-04-30 12:30 26.94006 124.37721 39058 ft 557 kts 47°
2026-04-30 12:31 26.98959 124.44404 39060 ft 557 kts 48°
2026-04-30 12:31 27.03907 124.51075 39059 ft 557 kts 48°
2026-04-30 12:32 27.08854 124.57754 39061 ft 557 kts 47°
2026-04-30 12:32 27.13791 124.64409 39061 ft 557 kts 47°
2026-04-30 12:33 27.18730 124.71091 39059 ft 558 kts 49°
2026-04-30 12:33 27.23671 124.77823 39059 ft 558 kts 49°
2026-04-30 12:34 27.28613 124.84548 39061 ft 560 kts 49°
2026-04-30 12:34 27.33562 124.91292 39059 ft 560 kts 49°
2026-04-30 12:35 27.38517 124.98061 39056 ft 561 kts 48°
2026-04-30 12:35 27.43477 125.04784 39059 ft 560 kts 48°
2026-04-30 12:36 27.48514 125.11553 39060 ft 561 kts 48°
2026-04-30 12:36 27.53511 125.18293 39054 ft 563 kts 48°
2026-04-30 12:37 27.58526 125.25077 39054 ft 563 kts 48°
2026-04-30 12:37 27.63542 125.31877 39051 ft 564 kts 48°
2026-04-30 12:38 27.68543 125.38665 39051 ft 565 kts 48°
2026-04-30 12:38 27.73562 125.45497 39050 ft 565 kts 48°
2026-04-30 12:39 27.78573 125.52321 39047 ft 566 kts 48°
2026-04-30 12:39 27.83598 125.59171 39045 ft 567 kts 49°
2026-04-30 12:40 27.88583 125.65989 39042 ft 567 kts 49°
2026-04-30 12:40 27.93596 125.72887 39044 ft 567 kts 49°
2026-04-30 12:41 27.98598 125.79759 39046 ft 567 kts 49°
2026-04-30 12:41 28.03611 125.86655 39038 ft 567 kts 49°
2026-04-30 12:42 28.08613 125.93533 39037 ft 568 kts 49°
2026-04-30 12:42 28.13650 126.00442 39037 ft 568 kts 49°
2026-04-30 12:43 28.18652 126.07305 39041 ft 569 kts 49°
2026-04-30 12:43 28.23672 126.14226 39031 ft 570 kts 49°
2026-04-30 12:44 28.28702 126.21187 39031 ft 571 kts 49°
2026-04-30 12:44 28.33721 126.28153 39028 ft 572 kts 49°
2026-04-30 12:45 28.38766 126.35157 39023 ft 573 kts 49°
2026-04-30 12:45 28.43781 126.42140 39022 ft 574 kts 50°
2026-04-30 12:46 28.48840 126.49190 39022 ft 574 kts 49°
2026-04-30 12:46 28.53841 126.56177 39022 ft 574 kts 49°
2026-04-30 12:47 28.58888 126.63223 39019 ft 575 kts 49°
2026-04-30 12:47 28.63928 126.70306 39012 ft 575 kts 50°
2026-04-30 12:48 28.68943 126.77371 39011 ft 575 kts 50°
2026-04-30 12:48 28.73970 126.84448 39009 ft 575 kts 50°
2026-04-30 12:49 28.79000 126.91537 39005 ft 576 kts 50°
2026-04-30 12:49 28.84005 126.98597 39002 ft 575 kts 50°
2026-04-30 12:50 28.89022 127.05675 38997 ft 576 kts 50°
2026-04-30 12:50 28.94064 127.12814 38998 ft 577 kts 50°
2026-04-30 12:51 28.99060 127.19894 38996 ft 577 kts 50°
2026-04-30 12:51 29.04106 127.27052 38993 ft 577 kts 50°
2026-04-30 12:52 29.09126 127.34186 38990 ft 578 kts 50°
2026-04-30 12:52 29.14154 127.41321 38983 ft 578 kts 50°
2026-04-30 12:53 29.19220 127.48512 38980 ft 579 kts 50°
2026-04-30 12:53 29.24231 127.55669 38973 ft 579 kts 50°
2026-04-30 12:54 29.29246 127.62855 38965 ft 580 kts 51°
2026-04-30 12:54 29.34270 127.70086 38960 ft 580 kts 51°
2026-04-30 12:55 29.39267 127.77296 38957 ft 581 kts 51°
2026-04-30 12:55 29.44289 127.84538 38961 ft 580 kts 51°
2026-04-30 12:56 29.49332 127.91810 38952 ft 581 kts 51°
2026-04-30 12:56 29.54335 127.99036 38945 ft 582 kts 51°
2026-04-30 12:57 29.59378 128.06320 38942 ft 582 kts 51°
2026-04-30 12:57 29.64402 128.13596 38940 ft 582 kts 50°
2026-04-30 12:58 29.69419 128.20868 38937 ft 582 kts 51°
2026-04-30 12:58 29.74422 128.28146 38935 ft 583 kts 51°
2026-04-30 12:59 29.79434 128.35451 38931 ft 582 kts 51°
2026-04-30 12:59 29.84446 128.42757 38926 ft 583 kts 51°
2026-04-30 13:00 29.89468 128.50102 38923 ft 582 kts 51°
2026-04-30 13:00 29.94454 128.57400 38915 ft 583 kts 51°
2026-04-30 13:01 29.99469 128.64755 38908 ft 583 kts 51°
2026-04-30 13:01 30.04477 128.72137 38912 ft 584 kts 52°
2026-04-30 13:02 30.09432 128.79459 38905 ft 583 kts 52°
2026-04-30 13:02 30.14445 128.86821 38904 ft 583 kts 52°
2026-04-30 13:03 30.19467 128.94208 38903 ft 584 kts 52°
2026-04-30 13:03 30.24450 129.01590 38902 ft 584 kts 52°
2026-04-30 13:04 30.29429 129.08963 38896 ft 584 kts 52°
2026-04-30 13:04 30.34437 129.16396 38895 ft 584 kts 52°
2026-04-30 13:05 30.39389 129.23772 38893 ft 584 kts 52°
2026-04-30 13:06 30.46883 129.34950 38888 ft 584 kts 53°
2026-04-30 13:06 30.51825 129.42348 38887 ft 582 kts 52°
2026-04-30 13:07 30.56768 129.49748 38881 ft 583 kts 52°
2026-04-30 13:07 30.61731 129.57202 38877 ft 583 kts 52°
2026-04-30 13:08 30.66683 129.64656 38876 ft 583 kts 52°
2026-04-30 13:08 30.71627 129.72131 38873 ft 584 kts 53°
2026-04-30 13:09 30.76538 129.79568 38866 ft 584 kts 53°
2026-04-30 13:09 30.82023 129.86502 38865 ft 581 kts 37°
2026-04-30 13:09 30.85313 129.89172 38863 ft 577 kts 25°
2026-04-30 13:10 30.88862 129.91185 38870 ft 569 kts 15°
2026-04-30 13:10 30.92617 129.92539 38857 ft 558 kts
2026-04-30 13:10 30.96411 129.93228 38866 ft 550 kts 357°
2026-04-30 13:11 31.04023 129.93893 38850 ft 548 kts 355°
2026-04-30 13:11 31.11632 129.94575 38850 ft 551 kts 356°
2026-04-30 13:12 31.19298 129.95395 38856 ft 554 kts 356°
2026-04-30 13:12 31.26944 129.96245 38860 ft 554 kts 356°
2026-04-30 13:13 31.38444 129.97266 38868 ft 553 kts 355°
2026-04-30 13:14 31.50020 129.98138 38876 ft 555 kts 355°
2026-04-30 13:14 31.61587 129.99052 38878 ft 556 kts 355°
2026-04-30 13:15 31.73201 129.99974 38872 ft 559 kts 355°
2026-04-30 13:16 31.80939 130.00594 38877 ft 558 kts 355°
2026-04-30 13:16 31.88671 130.01209 38869 ft 560 kts 354°
2026-04-30 13:17 32.00341 130.02141 38874 ft 561 kts 355°
2026-04-30 13:18 32.12030 130.03087 38607 ft 557 kts 354°
2026-04-30 13:18 32.19709 130.03714 37207 ft 556 kts 354°
2026-04-30 13:18 32.23590 130.04019 35988 ft 564 kts 354°
2026-04-30 13:19 32.27477 130.04334 35271 ft 561 kts 353°
2026-04-30 13:19 32.31354 130.04649 34539 ft 560 kts 353°
2026-04-30 13:19 32.35239 130.04965 33805 ft 559 kts 354°
2026-04-30 13:19 32.38911 130.05260 33113 ft 558 kts 354°
2026-04-30 13:20 32.42807 130.05574 32477 ft 557 kts 353°
2026-04-30 13:20 32.46687 130.05887 31858 ft 556 kts 354°
2026-04-30 13:20 32.50536 130.06198 31245 ft 557 kts 354°
2026-04-30 13:20 32.54398 130.06508 30615 ft 557 kts 354°
2026-04-30 13:21 32.58281 130.06732 30000 ft 551 kts 350°
2026-04-30 13:21 32.62046 130.06506 29390 ft 542 kts 342°
2026-04-30 13:21 32.65744 130.05808 28779 ft 532 kts 337°
2026-04-30 13:22 32.72901 130.03926 27594 ft 522 kts 336°
2026-04-30 13:22 32.76435 130.02975 26994 ft 519 kts 336°
2026-04-30 13:22 32.83465 130.01158 25810 ft 513 kts 338°
2026-04-30 13:23 32.86979 130.00267 25226 ft 509 kts 338°
2026-04-30 13:23 32.93869 129.98517 24091 ft 502 kts 338°
2026-04-30 13:24 33.00665 129.96782 22976 ft 495 kts 339°
2026-04-30 13:24 33.07372 129.95062 21826 ft 488 kts 339°
2026-04-30 13:25 33.13969 129.93375 20689 ft 480 kts 340°
2026-04-30 13:25 33.20450 129.91719 19552 ft 471 kts 341°
2026-04-30 13:26 33.29929 129.89288 17822 ft 457 kts 341°
2026-04-30 13:26 33.36093 129.87698 16617 ft 436 kts 342°
2026-04-30 13:27 33.41850 129.86211 15394 ft 405 kts 343°
2026-04-30 13:28 33.49758 129.85175 13593 ft 373 kts 11°
2026-04-30 13:28 33.54599 129.86870 12494 ft 352 kts 16°
2026-04-30 13:28 33.56894 129.87736 11936 ft 344 kts 16°
2026-04-30 13:29 33.61367 129.89377 10909 ft 326 kts 15°
2026-04-30 13:29 33.65606 129.90900 9989 ft 317 kts 15°
2026-04-30 13:30 33.72076 129.93216 8720 ft 326 kts 15°
2026-04-30 13:31 33.76315 129.94733 8024 ft 299 kts 15°
2026-04-30 13:31 33.81788 129.95634 8012 ft 248 kts
2026-04-30 13:32 33.85254 129.95975 7990 ft 249 kts 17°
2026-04-30 13:32 33.87151 129.98997 7984 ft 238 kts 95°
2026-04-30 13:33 33.86308 130.02892 7338 ft 245 kts 110°
2026-04-30 13:33 33.85311 130.06856 6580 ft 252 kts 108°
2026-04-30 13:34 33.84834 130.08873 6205 ft 247 kts 106°
2026-04-30 13:34 33.83502 130.14734 5129 ft 239 kts 104°
2026-04-30 13:35 33.83064 130.16641 4777 ft 237 kts 104°
2026-04-30 13:35 33.82201 130.20435 4119 ft 230 kts 103°
2026-04-30 13:36 33.81370 130.24087 3451 ft 224 kts 102°
2026-04-30 13:36 33.80961 130.25877 3198 ft 219 kts 102°
2026-04-30 13:36 33.80151 130.29423 2778 ft 219 kts 106°
2026-04-30 13:37 33.79313 130.30962 2528 ft 224 kts 139°
2026-04-30 13:37 33.76590 130.32843 2076 ft 224 kts 150°
2026-04-30 13:38 33.73843 130.34615 1999 ft 222 kts 148°
2026-04-30 13:38 33.72497 130.35532 1977 ft 223 kts 147°
2026-04-30 13:38 33.69876 130.37340 1983 ft 207 kts 147°
2026-04-30 13:39 33.67476 130.38989 1798 ft 190 kts 148°
2026-04-30 13:39 33.65246 130.40517 1330 ft 176 kts 148°
2026-04-30 13:40 33.64217 130.41223 1066 ft 167 kts 148°
2026-04-30 13:40 33.63237 130.41895 852 ft 155 kts 149°
2026-04-30 13:40 33.62313 130.42525 662 ft 150 kts 149°
2026-04-30 13:40 33.61403 130.43147 472 ft 148 kts 149°
2026-04-30 13:41 33.60514 130.43756 277 ft 147 kts 149°
2026-04-30 13:41 33.59636 130.44354 81 ft 145 kts 150°
2026-04-30 13:41 33.58821 130.44908 46 ft 108 kts 148°
2026-04-30 13:41 33.58348 130.45235 46 ft 47 kts 149°
2026-04-30 13:42 33.58210 130.45329 46 ft 14 kts 150°
2026-04-30 13:42 33.58106 130.45396 46 ft 19 kts 158°